This demonstration page uses our WeatherBlox Daily Observations layout. Learn more.

Left ArrowRight Arrow

31.84235, -102.49876

Hourly Observations for June 23, 2022

Temp ( °F °C ) Dew Point ( °F °C ) Humidity (%) Winds ( mph kmh ) Pressure ( in mb ) Visibility ( mi km ) Precip ( " mm )
12:53 am 00:53 Clear 85 29.4 57 13.9 39 39 S 12 19 29.94 1014 10 16 0.00 0.00
1:53 am 01:53 Clear 83 28.3 58 14.4 43 43 S 12 19 29.94 1014 10 16 0.00 0.00
2:53 am 02:53 Clear 82 27.8 59 15 46 46 S 12 19 29.94 1014 10 16 0.00 0.00
3:53 am 03:53 Clear 81 27.2 59 15 47 47 S 10 17 29.93 1014 10 16 0.00 0.00
4:53 am 04:53 Clear 79 26.1 59 15 50 50 S 8 13 29.94 1014 10 16 0.00 0.00
5:53 am 05:53 Clear 77 25 59 15 54 54 SSE 6 9 29.95 1014 10 16 0.00 0.00
6:53 am 06:53 Sunny 78 25.6 58 14.4 50 50 S 9 15 29.95 1014 10 16 0.00 0.00
7:53 am 07:53 Sunny 79 26.1 58 14.4 49 49 S 12 19 29.96 1014 10 16 0.00 0.00
8:53 am 08:53 Sunny 82 27.8 58 14.4 44 44 SSW 15 24 29.96 1015 10 16 0.00 0.00
9:53 am 09:53 Sunny 85 29.4 57 13.9 39 39 S 15 24 29.97 1015 10 16 0.00 0.00
10:53 am 10:53 Sunny 87 30.6 56 13.3 35 35 SSW 14 22 29.96 1015 10 16 0.00 0.00
11:53 am 11:53 Sunny 90 32.2 53 11.7 28 28 SSW 15 24 29.95 1014 10 16 0.00 0.00
12:53 pm 12:53 Sunny 93 33.9 52 11.1 25 25 S 14 22 29.92 1013 10 16 0.00 0.00
1:53 pm 13:53 Sunny 93 33.9 51 10.6 24 24 SSE 12 19 29.90 1013 10 16 0.00 0.00
2:53 pm 14:53 Sunny 96 35.6 49 9.4 20 20 S 16 26 29.86 1011 10 16 0.00 0.00
3:53 pm 15:53 Sunny 97 36.1 48 8.9 19 19 S 20 31 29.84 1010 10 16 0.00 0.00
4:53 pm 16:53 Sunny 99 37.2 46 7.8 16 16 S 20 31 29.81 1010 10 16 0.00 0.00
5:53 pm 17:53 Sunny 97 36.1 47 8.3 18 18 SSE 16 26 29.80 1009 10 16 0.00 0.00
6:53 pm 18:53 Sunny 97 36.1 46 7.8 17 17 SW 14 22 29.78 1009 10 16 0.00 0.00
7:19 pm 19:19 Sunny 96 35.6 46 7.8 18 18 SE 10 17 29.68 1005 10 16 0.00 0.00
7:53 pm 19:53 Sunny 95 35 45 7.2 18 18 SSE 16 26 29.79 1009 10 16 0.00 0.00
8:53 pm 20:53 Sunny 93 33.9 45 7.2 19 19 SSE 15 24 29.79 1009 10 16 0.00 0.00
9:53 pm 21:53 Clear 90 32.2 44 6.7 20 20 S 12 19 29.80 1009 10 16 0.00 0.00
10:53 pm 22:53 Clear 88 31.1 46 7.8 23 23 SSE 12 19 29.82 1010 10 16 0.00 0.00
11:53 pm 23:53 Clear 86 30 46 7.8 25 25 SSE 10 17 29.84 1010 10 16 0.00 0.00

Powered by AerisWeather